Location: Recife
(8.0585°S, 34.8848°W)
Time: 21:14:42
(UTC-03:00)

S-56A Canister/Altair - Pass Details

Date: 23 April 2026
Orbit: 633 x 2484 km, 38.9° (Epoch: 16 May)

Event Time Altitude Azimuth Distance (km) Brightness Sun altitude
Rises 10:27:16 0° 319° (NW) 6,141 12.2 65.8°
Reaches altitude 10° 10:31:24 10° 321° (NW) 5,119 12.0 66.3°
Maximum altitude 10:46:03 68° 41° (NE) 2,295 12.7 67.8°
Drops below altitude 10° 10:57:04 10° 121° (ESE) 3,973 11.2 68.6°
Sets 10:59:51 0° 124° (SE) 4,739 11.5 68.8°
